Regional Weather Roundup
Issued by NWS

Home | Current Version | Previous Version | Text Only | Print | Product List | Glossary On
Versions: 1 2 3 4 5 6 7 8 9 10 11 12 13 14 15 16 17 18 19 20 21 22 23 24 25 26 27 28 29 30 31 32 33 34 35 36 37 38 39 40 41 42 43 44 45 46 47 48 49 50
763
ASUS45 KBOI 120410
RWRID

IDAHO REGIONAL WEATHER ROUNDUP
NATIONAL WEATHER SERVICE BOISE ID
900 PM MST THU FEB 11 2016

NOTE: "FAIR" INDICATES FEW OR NO CLOUDS BELOW 12000 FEET
WITH NO SIGNIFICANT WEATHER AND/OR OBSTRUCTIONS TO VISIBILITY

IDZ012-014-120500-
SOUTHWEST IDAHO


CITY           SKY/WX    TMP DP  RH WIND       PRES   REMARKS
BOISE          MOCLDY    37  33  85 SE7       30.31F WCI  32
CALDWELL       MOCLDY    35  32  88 SW7       30.34S WCI  29
MOUNTAIN HOME  MOCLDY    36  30  78 CALM      30.31F
$$

IDZ016-017-120500-
SOUTHCENTRAL IDAHO


CITY           SKY/WX    TMP DP  RH WIND       PRES   REMARKS
BURLEY         PTCLDY    33  28  81 NE6       30.31R WCI  28
JEROME         PTCLDY    31  26  82 NE17      30.32S WCI  19
TWIN FALLS     PTCLDY    31  28  89 NE5       30.32S WCI  26
$$

IDZ019>023-120500-
SOUTHEAST IDAHO


CITY           SKY/WX    TMP DP  RH WIND       PRES   REMARKS
IDAHO FALLS    CLOUDY    28  24  85 NE3       30.37F
POCATELLO      CLOUDY    30  26  85 CALM      30.36S
REXBURG        MIX PCPN  30  25  81 NE6       30.37F WCI  24
$$

IDZ006-010-011-018-031-032-120500-
CENTRAL IDAHO MOUNTAINS


CITY           SKY/WX    TMP DP  RH WIND       PRES   REMARKS
MCCALL         CLOUDY    34  32  92 CALM      30.27S
HAILEY         CLEAR     36  28  75 NW6       30.35S WCI  31
STANLEY          N/A     31  25  78 CALM      30.33S
SALMON         CLOUDY    30  25  80 CALM      30.37R
CHALLIS        CLOUDY    30  26  85 CALM      30.34F
$$

IDZ002-004-006-007-026-120500-
NORTHERN IDAHO


CITY           SKY/WX    TMP DP  RH WIND       PRES   REMARKS
LEWISTON       LGT RAIN  48  41  76 E3        30.22F
LOWELL           N/A     42  39  89 CALM      30.30R
COEUR D`ALENE  CLOUDY    41  36  81 NE10      30.21S
MULLAN PASS    LGT RAIN  35  31  85 SE5       30.22F WCI  31
$$




USA.gov is the U.S. government's official web portal to all federal, state and local government web resources and services.